This is the latest recevied weather packets stored in our database for station/object LA5PPA-1. If no packets are shown the sender has not sent any weather packets the latest 1 day(s).
| Time | Temp. | Humidity | Pressure | Rain* | Wind** | Luminosity | Snow |
|---|---|---|---|---|---|---|---|
| 1777999016 | 0° C | 51% | 1014.7 hPa | 0 mm | 0.89 m/s, 284° | - | - |
| 1777998716 | 0° C | 50% | 1014.7 hPa | 0 mm | 0.89 m/s, 307° | - | - |
| 1777998416 | 0° C | 49% | 1014.5 hPa | 0 mm | 1.34 m/s, 313° | - | - |
| 1777998357 | 0° C | 50% | 1014.7 hPa | 0 mm | 1.34 m/s, 312° | - | - |
| 1777998116 | 0° C | 50% | 1014.7 hPa | 0 mm | 0 m/s | - | - |
| 1777997816 | 0° C | 47% | 1014.7 hPa | 0 mm | 0.45 m/s, 330° | - | - |
| 1777997697 | 0° C | 49% | 1014.7 hPa | 0 mm | 2.24 m/s, 305° | - | - |
| 1777997516 | 0° C | 48% | 1014.6 hPa | 0 mm | 0.89 m/s, 303° | - | - |
| 1777997216 | 0° C | 49% | 1014.6 hPa | 0 mm | 1.34 m/s, 306° | - | - |
| 1777997037 | 0.56° C | 48% | 1014.6 hPa | 0 mm | 2.68 m/s, 322° | - | - |
| 1777996916 | 0.56° C | 49% | 1014.6 hPa | 0 mm | 3.13 m/s, 300° | - | - |
| 1777996616 | 1.11° C | 49% | 1014.6 hPa | 0 mm | 4.02 m/s, 302° | - | - |
| 1777996377 | 0.56° C | 49% | 1014.5 hPa | 0 mm | 1.34 m/s, 310° | - | - |
| 1777996316 | 0.56° C | 49% | 1014.5 hPa | 0 mm | 2.24 m/s, 323° | - | - |
| 1777996016 | 1.11° C | 47% | 1014.5 hPa | 0 mm | 4.02 m/s, 289° | - | - |
| 1777995716 | 1.67° C | 45% | 1014.5 hPa | 0 mm | 2.24 m/s, 313° | - | - |
| 1777995416 | 2.22° C | 44% | 1014.4 hPa | 0 mm | 1.79 m/s, 331° | - | - |
| 1777995116 | 2.22° C | 45% | 1014.3 hPa | 0 mm | 1.34 m/s, 313° | - | - |
| 1777995057 | 2.22° C | 47% | 1014.4 hPa | 0 mm | 2.68 m/s, 317° | - | - |
| 1777994816 | 2.22° C | 47% | 1014.5 hPa | 0 mm | 1.79 m/s, 336° | - | - |
| 1777994516 | 1.67° C | 46% | 1014.5 hPa | 0 mm | 2.68 m/s, 282° | - | - |
| 1777994397 | 1.67° C | 46% | 1014.5 hPa | 0 mm | 2.24 m/s, 320° | - | - |
| 1777994216 | 1.67° C | 47% | 1014.4 hPa | 0 mm | 1.34 m/s, 336° | - | - |
| 1777993916 | 1.67° C | 45% | 1014.4 hPa | 0 mm | 4.47 m/s, 284° | - | - |
| 1777993737 | 1.67° C | 48% | 1014.4 hPa | 0 mm | 2.24 m/s, 258° | - | - |
* Rain latest hour (hover to see other rain measurements)
** Current wind speed in m/s (hover to see current wind gust speed)